Location: Borovka
(49.7741°N, 14.5280°E)
Time: 04:08:35
(UTC+00:00)

ESTCUBE 1 - Pass Details

Date: 19 March 2026
Orbit: 620 x 631 km, 97.7° (Epoch: 13 April)

Event Time Altitude Azimuth Distance (km) Brightness Sun altitude
Exits shadow 18:23:14 16° 87° (E) 1,624 ? -12.0°
Maximum altitude 18:24:46 20° 61° (ENE) 1,483 ? -12.3°
Drops below altitude 10° 18:27:55 10° 15° (NNE) 2,020 ? -12.8°
Sets 18:30:36 0° 358° (N) 2,934 ? -13.2°
